Regional Weather Roundup
Issued by NWS New Orleans/Baton Rouge, LA

Home | Current Version | Previous Version | Text Only | Print | Product List | Glossary Off
Versions: 1 2 3 4 5 6 7 8 9 10 11 12 13 14 15 16 17 18 19 20 21 22 23 24 25 26 27 28 29 30 31 32 33 34 35 36 37 38 39 40 41 42 43 44 45 46 47 48 49 50

499
ASUS44 KLIX 151805
RWRLIX
NEW ORLEANS REGIONAL WEATHER ROUNDUP
NATIONAL WEATHER SERVICE NEW ORLEANS LA
100 PM CDT MON SEP 15 2014

NOTE: "FAIR" INDICATES FEW OR NO CLOUDS BELOW 12,000 FEET WITH NO
      SIGNIFICANT WEATHER AND/OR OBSTRUCTIONS TO VISIBILITY.
      SKY/WX - SKY CONDITION AND SIGNIFICANT WEATHER.
      TMP - AIR TEMPERATURE.     DP    - DEWPOINT TEMPERATURE.
      RH  - RELATIVE HUMIDITY.   PRES  - PRESSURE.
      HI  - HEAT INDEX.          WCI   - WIND CHILL INDEX.

*  THESE STATIONS ARE NOT NWS OR FAA STATIONS AND ARE NOT UNDER
   NWS QUALITY CONTROL.

LAZ038-040-048-061>063-065>067-069-151900-
SOUTHEAST LOUISIANA

CITY           SKY/WX    TMP DP  RH WIND       PRES   REMARKS
N.O. AUDUBON     N/A     91  74  58 MISG        N/A  HX 100
6HR MIN TEMP:  80; 6HR MAX TEMP:  93;

N.O. INTL ARPT PTSUNNY   88  76  67 NE14      30.08F HX  99
6HR MIN TEMP:  81; 6HR MAX TEMP:  90; 6HR PCP: TRACE;

N.O. LAKEFRONT PTSUNNY   83  74  74 S9        30.09F
6HR MIN TEMP:  81; 6HR MAX TEMP:  88;

N.O. DOWNTOWN* MOCLDY    86  72  62 NE8       30.09F
6HR MIN TEMP:  81; 6HR MAX TEMP:  88;

SLIDELL        CLOUDY    88  74  63 E3        30.08F HX  96
6HR MIN TEMP:  73; 6HR MAX TEMP:  89;

BATON ROUGE    PTSUNNY   89  73  59 NE8       30.09F HX  97
6HR MIN TEMP:  71; 6HR MAX TEMP:  91;

BOOTHVILLE     HVY RAIN  80  77  90 S9        30.10S FOG
6HR MIN TEMP:  80; 6HR MAX TEMP:  89; 6HR PCP:  0.30;

BELLE CHASSE   PTSUNNY   90  69  50 E5        30.07F
6HR MIN TEMP:  78; 6HR MAX TEMP:  91; 6HR PCP:  0.02;

BOGALUSA*        N/A     91  71  53 S3        30.10F HX  97
6HR MIN TEMP:  73; 6HR MAX TEMP:  92;

GALLIANO*      NOT AVBL
NEW ROADS*     MOCLDY    88  73  62 NE6       30.10F HX  95
6HR MIN TEMP:  70; 6HR MAX TEMP:  89;

GONZALES*      MOCLDY   N/A N/A N/A E3        30.08F THUNDER
HAMMOND*       MOSUNNY   93  70  46 SE5       30.10F HX  99
HOUMA*         PTSUNNY   88  72  58 SE12      30.08F
PORT FOURCHON* PTCLDY    79  73  83 CALM      30.12F HAZE

$$

MSZ070-080>082-151900-
SOUTHERN MISSISSIPPI

CITY           SKY/WX    TMP DP  RH WIND       PRES   REMARKS
MCCOMB         MOSUNNY   90  70  51 VRB6      30.12F HX  95
6HR MIN TEMP:  72; 6HR MAX TEMP:  90;

GULFPORT       MOSUNNY   88  74  63 CALM      30.08F HX  96
6HR MIN TEMP:  76; 6HR MAX TEMP:  88;

BILOXI         MOSUNNY   89  75  63 SE10      30.09F HX  99
6HR MIN TEMP:  76; 6HR MAX TEMP:  89;

PASCAGOULA     RAIN      78  76  93 CALM      30.10S FOG
6HR MIN TEMP:  72; 6HR MAX TEMP:  88; 6HR PCP:  0.72;

STENNIS ARPT*  MOSUNNY   90  73  58 SE6       30.09F HX  98

$$

COASTAL OBSERVATIONS
LAKE AND NEARSHORE STATIONS

STATION/POSITION TIME  TEMP    WIND        PRES    WAVE
                       AIR SEA DIR/SP/G            HT/PER
                 (UTC) (F)     (DEG/KT/KT) (MB)    (FT/S)
PASCAGOULA       1800   87     140/  4/  8 1018.6
WAVELAND YACHT   1800   83     170/  7/  9 1018.5
GRAND ISLE       1800   85 85  140/  5/  7 1019.6
SOUTHWEST PASS   1800   81 91  310/  2/  3 1019.3
NEW CANAL        1800   85 82  280/  1/  7 1019.3
SHELL BEACH      1800   85 80   10/  9/ 10 1018.6

OFFSHORE STATIONS

STATION/POSITION TIME  TEMP    WIND        PRES    WAVE
                       AIR SEA DIR/SP/G            HT/PER
                 (UTC) (F)     (DEG/KT/KT) (MB)    (FT/S)
64 S DAUPHIN ISL 1729   83 87  210/ 10/ 12 1019.4    2/ 7

$$




USA.gov is the U.S. government's official web portal to all federal, state and local government web resources and services.